Regional Weather Roundup
Issued by NWS

Home | Current Version | Previous Version | Text Only | Print | Product List | Glossary On
Versions: 1 2 3 4 5 6 7 8 9 10 11 12 13 14 15 16 17 18 19 20 21 22 23 24 25 26 27 28 29 30 31 32 33 34 35 36 37 38 39 40 41 42 43 44 45 46 47 48 49 50
000
ASUS45 KABQ 270801
RWRNM
NEW MEXICO REGIONAL WEATHER ROUNDUP
NATIONAL WEATHER SERVICE ALBUQUERQUE NM
200 AM MDT WED JUL 27 2016

NOTE: "FAIR" MEANS FEW OR NO CLOUDS BELOW 12,000 FEET AGL WITH NO
       SIGNIFICANT WEATHER OR OBSTRUCTIONS TO VISION.

      THIS PRODUCT IS RELEASED AS TWO VERSIONS.  ONE VERSION NEAR
      THE TOP OF THE HOUR CONTAINING PRELIMINARY DATA FROM ALBUQUERQUE
      AND OTHER STATIONS.  A FINAL VERSION WITH ADDITIONAL DATA IS
      ISSUED ABOUT 10 MINUTES AFTER THE HOUR.

NMZ501-503-504-510>518-270900-
NORTHWEST PLATEAU/NORTHCENTRAL MOUNTAINS

CITY           SKY/WX    TMP DP  RH WIND       PRES   REMARKS
FARMINGTON     FAIR      69  48  47 CALM      30.20S
LOS ALAMOS     FAIR     N/A N/A N/A SW7       30.33F
SANTA FE       FAIR      67  52  58 S3        30.27F
TAOS           CLOUDY    64  39  39 SE5       30.34F
ANGEL FIRE     CLOUDY    51  50  95 CALM      30.44F

$$
NMZ402-403-502-505>509-270900-
WESTCENTRAL MOUNTAINS/SOUTHWEST MOUNTAINS

CITY           SKY/WX    TMP DP  RH WIND       PRES   REMARKS
GALLUP         FAIR      70  47  43 SE6       30.26S
GRANTS         FAIR      64  53  65 SW7       30.29F
SILVER CITY    MOCLDY    74  54  48 E3        30.18R

$$
NMZ407-409-411-412-270900-
SOUTHERN DESERTS

CITY           SKY/WX    TMP DP  RH WIND       PRES   REMARKS
LORDSBURG      FAIR      75  59  57 SE6       30.08R
DEMING         NOT AVBL
LAS CRUCES     CLOUDY    79  55  44 SE8       30.12R
HOLLOMAN AFB   CLOUDY    77  60  55 N9        30.09S
ALAMOGORDO     CLOUDY    73  63  68 NW10      30.11S
T OR C         FAIR      73  59  61 N16G23    30.14S

$$
NMZ519>523-270900-
CENTRAL VALLEYS/CENTRAL HIGHLANDS

CITY           SKY/WX    TMP DP  RH WIND       PRES   REMARKS
ALBUQUERQUE    MOCLDY    74  56  53 SE5       30.20F
DOUBLE EAGLE   FAIR      70  57  62 CALM      30.23F
MORIARTY ARPT  FAIR      62  55  77 SE5       30.28F
CLINES CORNERS MOCLDY    60  55  83 W7        30.32F
BELEN          FAIR      69  63  82 W8        30.19S
SOCORRO        FAIR      73  57  57 E6        30.19R

$$
NMZ524>526-539-540-270900-
SOUTHCENTRAL MOUNTAINS

CITY           SKY/WX    TMP DP  RH WIND       PRES   REMARKS
RUIDOSO        LGT RAIN  59  57  94 SW8       30.36F

$$
NMZ527>531-270900-
NORTHEAST HIGHLANDS/NORTHEAST PLAINS

CITY           SKY/WX    TMP DP  RH WIND       PRES   REMARKS
LAS VEGAS      FAIR      61  52  72 NW7       30.30F
RATON          FAIR     N/A N/A N/A E3        30.23F
CLAYTON        FAIR      69  64  84 S3        30.14F

$$
NMZ532>537-270900-
EASTCENTRAL PLAINS

CITY           SKY/WX    TMP DP  RH WIND       PRES   REMARKS
TUCUMCARI      FAIR      73  63  70 SW6       30.08F
CANNON AFB     FAIR      71  66  84 SW2       30.11F
CLOVIS AIRPORT FAIR      68  59  73 S5        30.11F

$$
NMZ028-029-538-270900-
SOUTHEAST PLAINS

CITY           SKY/WX    TMP DP  RH WIND       PRES   REMARKS
ROSWELL        MOCLDY    74  64  71 S3        30.08S
ARTESIA        MOCLDY    77  64  65 SE5       30.07S
CARLSBAD       MOCLDY    74  67  78 SW5       30.03F
HOBBS          FAIR      72  63  73 W6        30.08F


$$



USA.gov is the U.S. government's official web portal to all federal, state and local government web resources and services.